linux/Documentation/devicetree/bindings/leds/
<<
>>
Prefs
backlight
irled
ams,as3645a.txt 2495 2021-08-29 15:04:50 -0700
common.txt 38 2021-08-29 15:04:50 -0700
common.yaml 8273 2022-10-02 21:09:07
cznic,turris-omnia-leds.yaml 2201 2022-10-04 14:08:43
kinetic,ktd2692.yaml 2184 2022-10-02 21:09:07
leds-aat1290.txt 2924 2021-08-29 15:04:50 -0700
leds-an30259a.txt 1359 2021-08-29 15:04:50 -0700
leds-aw2013.yaml 1906 2021-08-29 15:04:50 -0700
leds-bcm6328.yaml 10626 2022-03-20 20:14:17
leds-bcm6358.txt 3045 2021-08-29 15:04:50 -0700
leds-class-multicolor.yaml 1303 2022-10-04 14:08:43
leds-cpcap.txt 939 2021-08-29 15:04:50 -0700
leds-cr0014114.txt 1402 2021-08-29 15:04:50 -0700
leds-el15203000.txt 1731 2021-08-29 15:04:50 -0700
leds-gpio.yaml 2092 2021-08-29 15:04:50 -0700
leds-is31fl319x.txt 1791 2021-08-29 15:04:50 -0700
leds-is31fl32xx.txt 1170 2021-08-29 15:04:50 -0700
leds-lgm.yaml 2878 2021-08-29 15:04:50 -0700
leds-lm3532.txt 3679 2021-08-29 15:04:50 -0700
leds-lm3601x.txt 1376 2021-08-29 15:04:50 -0700
leds-lm36274.txt 2228 2021-08-29 15:04:50 -0700
leds-lm3692x.txt 1887 2021-08-29 15:04:50 -0700
leds-lm3697.txt 2080 2021-08-29 15:04:50 -0700
leds-lp50xx.yaml 3132 2022-10-04 14:08:43
leds-lp55xx.yaml 5804 2021-08-29 15:04:50 -0700
leds-lp8860.txt 1292 2021-08-29 15:04:50 -0700
leds-lt3593.txt 1159 2021-08-29 15:04:50 -0700
leds-max77650.yaml 1059 2021-08-29 15:04:50 -0700
leds-mt6323.txt 1660 2021-08-29 15:04:50 -0700
leds-mt6360.yaml 3787 2022-10-02 21:09:07
leds-netxbig.txt 2359 2021-08-29 15:04:50 -0700
leds-ns2.txt 1073 2021-08-29 15:04:50 -0700
leds-pca9532.txt 1341 2021-08-29 15:04:50 -0700
leds-pca955x.txt 1938 2021-08-29 15:04:50 -0700
leds-pm8058.txt 2002 2021-08-29 15:04:50 -0700
leds-powernv.txt 613 2021-08-29 15:04:50 -0700
leds-pwm-multicolor.yaml 1569 2022-10-04 14:08:43
leds-pwm.yaml 1432 2021-08-29 15:04:50 -0700
leds-qcom-lpg.yaml 3801 2022-10-04 14:08:43
leds-rt4505.yaml 1238 2021-08-29 15:04:50 -0700
leds-sc27xx-bltc.txt 993 2021-08-29 15:04:50 -0700
leds-sgm3140.yaml 1453 2021-08-29 15:04:50 -0700
leds-spi-byte.txt 1276 2021-08-29 15:04:50 -0700
leds-tlc591xx.txt 786 2021-08-29 15:04:50 -0700
leds-trigger-pattern.txt 2008 2021-08-29 15:04:50 -0700
maxim,max77693.yaml 3282 2022-10-02 21:09:07
pca963x.txt 1477 2021-08-29 15:04:50 -0700
register-bit-led.yaml 2630 2022-01-09 22:55:34
regulator-led.yaml 1285 2022-10-02 21:09:07
richtek,rt8515.yaml 3543 2021-08-29 15:04:50 -0700
rohm,bd71828-leds.yaml 1456 2021-08-29 15:04:50 -0700
ti,tca6507.yaml 2476 2021-08-29 15:04:50 -0700
trigger-source.yaml 674 2021-08-29 15:04:50 -0700